Flag for Tajikistan Weather past 2 weeks in Dushanbe, Tajikistan

Now
73 °F

Clear.


Feels Like: 77 °F
Forecast: 60 / 82 °F
Wind: 1 mph from North

Location: Dushanbe Airport

Current Time: Sep 4, 2015 at 9:35:01 PM

Latest Report: Sep 4, 2015 at 9:00 PM


Visibility: N/A

Pressure: 30.04 "Hg (27.29 "Hg at 832m altitude)

Humidity: 36%

Dew point: 45 °F

Location of DushanbeLocation

Historic Weather in Dushanbe — Graph

°F

Dushanbe temperature yesterday

Maximum temperature yesterday: 84 °F (at 3:30 PM)
Minimum temperature yesterday: 66 °F (at 6:00 AM)
Average temperature yesterday: 74 °F

Past Weeks' High & Low Weather Summary

 TemperatureHumidityPressure
High100 °F (Aug 21, 3:00 PM)78% (Aug 27, 8:30 AM)30.09 "Hg (Aug 27, 8:30 AM)
Low57 °F (Aug 24, 5:00 AM)15% (Aug 21, 3:00 PM)29.68 "Hg (Aug 21, 3:30 PM)
Average76 °F40%29.93 "Hg
* Reported Aug 20 8:00 PM — Sep 4 8:30 PM, Dushanbe, Weather by CustomWeather, © 2015

Note: Actual official high and low records may vary slightly from our data, if they occured in-between our weather recording intervals... More about our weather records

Advertising

Dushanbe weather history for previous 24 hours

 ConditionsComfort  
Time TempWeatherWind HumidityBarometerVisibility
8:30 PM
Fri, Sep 4
75 °FClear.3 mph31%30.01 "HgN/A
8:00 PM73 °FClear.1 mph36%30.01 "HgN/A
7:30 PM77 °FClear.6 mph30%29.98 "HgN/A
7:00 PM79 °FClear.8 mph28%29.98 "HgN/A
6:30 PM81 °FClear.8 mph24%29.98 "HgN/A
6:00 PM82 °FClear.8 mph25%29.98 "HgN/A
5:30 PM84 °FClear.10 mph22%29.98 "HgN/A
5:00 PM86 °FClear.10 mph19%29.95 "HgN/A
4:30 PM86 °FClear.8 mph22%29.98 "HgN/A
4:00 PM86 °FClear.8 mph20%29.98 "HgN/A
3:30 PM86 °FClear.6 mph19%29.98 "HgN/A
3:00 PM86 °FClear.6 mph19%29.98 "HgN/A
2:30 PM86 °FClear.6 mph20%30.01 "HgN/A
2:00 PM86 °FClear.8 mph22%30.01 "HgN/A
1:30 PM84 °FClear.6 mph23%30.01 "HgN/A
1:00 PM84 °FClear.6 mph22%30.04 "HgN/A
12:30 PM84 °FClear.3 mph22%30.04 "HgN/A
12:00 PM81 °FClear.3 mph24%30.04 "HgN/A
11:30 AM81 °FClear.3 mph26%30.07 "HgN/A
11:00 AM79 °FClear.6 mph30%30.07 "HgN/A
10:30 AM77 °FClear.6 mph34%30.07 "HgN/A
10:00 AM75 °FClear.3 mph36%30.07 "HgN/A
9:30 AM73 °FClear.3 mph41%30.07 "HgN/A
9:00 AM72 °FClear.1 mph41%30.07 "HgN/A
8:30 AM70 °FClear.1 mph40%30.07 "HgN/A
8:00 AM66 °FClear.1 mph52%30.07 "Hg6 mi
7:30 AM66 °FClear.1 mph52%30.07 "Hg5 mi
7:00 AM61 °FClear.3 mph63%30.07 "Hg6 mi
6:30 AM57 °FClear.1 mph63%30.07 "Hg5 mi
6:00 AM59 °FClear.No wind63%30.07 "HgN/A
5:30 AM61 °FClear.No wind52%30.07 "HgN/A
5:00 AM61 °FClear.No wind55%30.07 "HgN/A
4:30 AM59 °FClear.3 mph59%30.04 "HgN/A
4:00 AM57 °FClear.1 mph67%30.04 "HgN/A
3:30 AM61 °FClear.No wind59%30.04 "HgN/A
2:30 AM59 °FClear.1 mph68%30.04 "HgN/A
2:00 AM61 °FClear.3 mph55%30.04 "HgN/A
1:30 AM64 °FClear.No wind49%30.04 "HgN/A
1:00 AM63 °FClear.1 mph56%30.07 "HgN/A
12:30 AM63 °FClear.1 mph49%30.07 "HgN/A
12:00 AM66 °FClear.3 mph49%30.04 "HgN/A
11:30 PM
Thu, Sep 3
66 °FClear.3 mph49%30.07 "HgN/A
11:00 PM68 °FClear.3 mph46%30.07 "HgN/A
10:30 PM68 °FClear.3 mph46%30.04 "HgN/A
10:00 PM68 °FClear.3 mph49%30.04 "HgN/A
9:30 PM70 °FClear.3 mph46%30.04 "HgN/A
9:00 PM70 °FClear.No wind46%30.04 "HgN/A
Weather by CustomWeather, © 2015

See weather overviewHow to use our weather pages